Resolute,

3:20 PM CDT on July 28, 2017 (GMT -0500)
Resolute

Weather History for CYRB - June, 2013

Change the Weather History Date:

Saturday, June 1, 2013

  Actual Average Record
Temperature  
Mean Temperature 26 °F -  
Max Temperature 28 °F 35 °F 39 °F (1998)
Min Temperature 23 °F 27 °F 6 °F (2004)
Degree Days  
Heating Degree Days 39    
Moisture  
Dew Point 24 °F    
Average Humidity 91    
Maximum Humidity 100    
Minimum Humidity 84    
Precipitation  
Precipitation 0.00 in 0.02 in - ()
Sea Level Pressure  
Sea Level Pressure 30.01 in    
Wind  
Wind Speed 6 mph ()    
Max Wind Speed 14 mph    
Max Gust Speed -    
Visibility 4.6 miles    
Events Fog , Snow    
Averages and records for this station are not official NWS values.
T = Trace of Precipitation, MM = Missing Value Source: Averaged Metar Reports

Daily Weather History Graph

Daily Weather History Graph

Search for Another Location

Airport or City:

Trip Planner

Search our weather history database for the weather conditions in past years. The results will help you decide how hot, cold, wet, or windy it might be!

Date:

Astronomy

Dec. 31, 1969 Rise Set
Actual Time Sun does not set Sun does not set
Civil Twilight Sun does not set Sun does not set
Nautical Twilight Sun does not set Sun does not set
Astronomical Twilight Sun does not set Sun does not set
Moon 2:00 AM CDT (6/1) 2:29 PM CDT (6/1)
Length of Visible Light 24h 00m
Length of Day
24h 00m
Last Quarter, 40% of the Moon is Illuminated
Jun 1
Last Quarter
Jun 8
New
Jun 16
First Quarter
Jun 23
Full
Jun 29
Last Quarter

Hourly Weather History & Observations

Time (CDT) Temp. Windchill Dew Point Humidity Pressure Visibility Wind Dir Wind Speed Gust Speed Precip Events Conditions
12:00 AM 24.8 °F 17.9 °F 21.2 °F 86% 30.12 in 4.0 mi SE 5.8 mph - N/A Snow Light Snow Grains
1:00 AM 25 °F - 22 °F 84% 30.12 in 4 mi SSE 4.6 mph - - Snow Snow Grains
1:00 AM 24.8 °F 19.1 °F 23.0 °F 93% 30.12 in 4.0 mi SSE 4.6 mph - N/A Snow Light Snow Grains
2:00 AM 24.8 °F 19.1 °F 23.0 °F 93% 30.11 in 4.0 mi SE 4.6 mph - N/A Fog , Snow Light Snow Grains
2:16 AM - - - N/A% - 0.6 mi SSE 4.6 mph - N/A   Overcast
3:00 AM 24.8 °F 20.5 °F 23.0 °F 93% 30.11 in 0.5 mi SSE 3.5 mph - N/A Fog , Snow Snow
4:00 AM 24.8 °F 20.5 °F 23.0 °F 93% 30.10 in 0.5 mi South 3.5 mph - N/A Fog , Snow Snow
4:17 AM - - - N/A% - 0.2 mi South 4.6 mph - N/A Fog Light Freezing Fog
5:00 AM 24.8 °F 19.1 °F 23.0 °F 93% 30.09 in 0.2 mi SSE 4.6 mph - N/A Fog Light Freezing Fog
5:39 AM - - - N/A% - 0.5 mi SE 4.6 mph - N/A Fog Light Freezing Fog
5:50 AM - - - N/A% - 2.0 mi ESE 5.8 mph - N/A Fog Overcast
6:00 AM 24.8 °F 19.1 °F 23.0 °F 93% 30.08 in 15.0 mi SE 4.6 mph - N/A Fog Shallow Fog
6:15 AM - - - N/A% - 5.0 mi SSE 5.8 mph - N/A Fog Overcast
6:40 AM - - - N/A% - 10.0 mi SE 6.9 mph - N/A Fog Overcast
7:00 AM 26 °F - 24 °F 88% 30.06 in 10 mi SE 6.9 mph - -   Partly Cloudy
7:00 AM 26.6 °F 19.1 °F 24.8 °F 93% 30.06 in 10.0 mi SE 6.9 mph - N/A   Overcast
7:18 AM - - - N/A% - 0.2 mi SSE 8.1 mph - N/A Fog Light Freezing Fog
8:00 AM 26.6 °F 18.2 °F 23.0 °F 86% 30.05 in 0.2 mi SSE 8.1 mph - N/A Fog Light Freezing Fog
8:41 AM - - - N/A% - 0.5 mi SSE 9.2 mph - N/A Fog Light Freezing Fog
9:00 AM 26.6 °F 18.2 °F 24.8 °F 93% 30.04 in 0.5 mi SSE 8.1 mph - N/A Fog Light Freezing Fog
9:19 AM - - - N/A% - 0.2 mi South 8.1 mph - N/A Fog Light Freezing Fog
10:00 AM 26.6 °F 15.7 °F 24.8 °F 93% 30.02 in 0.2 mi SSW 12.7 mph - N/A Fog Light Freezing Fog
10:26 AM - - - N/A% - 15.0 mi South 12.7 mph - N/A Fog Overcast
11:00 AM 26.6 °F 18.2 °F 23.0 °F 86% 30.01 in 15.0 mi South 8.1 mph - N/A   Overcast
12:00 PM 26.6 °F 15.2 °F 24.8 °F 93% 29.99 in 15.0 mi South 13.8 mph - N/A   Overcast
12:38 PM - - - N/A% - 4.0 mi South 10.4 mph - N/A Snow Light Snow Grains
1:00 PM 28 °F - 26 °F 86% 29.98 in 4 mi South 12.7 mph - - Snow Snow Grains
1:00 PM 28.4 °F 18.0 °F 24.8 °F 86% 29.98 in 4.0 mi South 12.7 mph - N/A Snow Light Snow Grains
2:00 PM 28.4 °F 19.7 °F 26.6 °F 93% 29.96 in 5.0 mi SSW 9.2 mph - N/A Snow Light Snow Grains
3:00 PM 28.4 °F 17.5 °F 26.6 °F 93% 29.96 in 6.0 mi SSW 13.8 mph - N/A Snow Light Snow Grains
3:30 PM - - - N/A% - 5.0 mi SSW 11.5 mph - N/A Snow Light Snow Grains
4:00 PM 28.4 °F 17.5 °F 24.8 °F 86% 29.95 in 5.0 mi SSW 13.8 mph - N/A Snow Light Snow
4:30 PM - - - N/A% - 4.0 mi SSW 13.8 mph - N/A Snow Light Snow Grains
4:45 PM - - - N/A% - 1.5 mi SSW 12.7 mph - N/A Snow Light Snow Grains
5:00 PM 26.6 °F 16.2 °F 24.8 °F 93% 29.94 in 2.5 mi South 11.5 mph - N/A Snow Light Snow Grains
6:00 PM 28.4 °F 18.5 °F 26.6 °F 93% 29.92 in 1.5 mi SSW 11.5 mph - N/A Snow Light Snow
7:00 PM 28 °F - 27 °F 95% 29.92 in 1 mi West 6.9 mph - - Snow Light Snow
7:00 PM 28.4 °F 21.2 °F 26.6 °F 93% 29.92 in 1.5 mi West 6.9 mph - N/A Snow Light Snow
7:20 PM - - - N/A% - 5.0 mi NW 8.1 mph - N/A   Unknown
8:00 PM 28.4 °F 22.2 °F 26.6 °F 93% 29.91 in 4.0 mi WNW 5.8 mph - N/A Snow Light Snow
8:24 PM - - - N/A% - 5.0 mi WNW 3.5 mph - N/A   Unknown
9:00 PM 28.4 °F 24.6 °F 26.6 °F 93% 29.91 in 6.0 mi NW 3.5 mph - N/A Snow Light Snow
9:23 PM - - - N/A% - 3.0 mi NW 5.8 mph - N/A   Unknown
10:00 PM 26.6 °F 20.0 °F 26.6 °F 100% 29.91 in 4.0 mi NW 5.8 mph - N/A Snow Light Snow
10:29 PM - - - N/A% - 10.0 mi NNW 8.1 mph - N/A   Scattered Clouds
11:00 PM 23.0 °F 13.1 °F 21.2 °F 93% 29.91 in 12.0 mi North 9.2 mph - N/A Fog Partly Cloudy